| time (UTC) | temp F | wind direction | speed MPH | gust MPH | rain 1hr in | rain 24hr in | rain mn in | humidity % | barometer mb |
| 20260504081525 | 64 | 189 | 5.0 | 9.0 | 0.00 | 0.00 | 0.00 | 57 | 1008.6 |
| 20260504044527 | 64 | 189 | 1.0 | 6.0 | 0.00 | 0.00 | 0.00 | 60 | 1010.4 |
| 20260504043106 | 64 | 196 | 0.0 | 5.0 | 0.00 | 0.00 | 0.00 | 60 | 1010.7 |
| 20260504043006 | 64 | 206 | 0.0 | 5.0 | 0.00 | 0.00 | 0.00 | 60 | 1010.7 |
| 20260504041542 | 64 | 149 | 0.0 | 5.0 | 0.00 | 0.00 | 0.00 | 59 | 1010.8 |
| 20260504040018 | 64 | 265 | 1.0 | 6.0 | 0.00 | 0.00 | 0.00 | 58 | 1010.8 |
| 20260504034613 | 65 | 200 | 0.0 | 5.0 | 0.00 | 0.00 | 0.00 | 57 | 1010.9 |
| 20260504034504 | 65 | 220 | 0.0 | 5.0 | 0.00 | 0.00 | 0.00 | 57 | 1010.9 |
| 20260504033049 | 65 | 303 | 0.0 | 4.0 | 0.00 | 0.00 | 0.00 | 57 | 1011.0 |
| 20260504031518 | 65 | 129 | 0.0 | 5.0 | 0.00 | 0.00 | 0.00 | 56 | 1011.1 |
| 20260504030005 | 65 | 278 | 0.0 | 6.0 | 0.00 | 0.00 | 0.00 | 55 | 1011.2 |
| 20260504024549 | 65 | 127 | 0.0 | 0.0 | 0.00 | 0.00 | 0.00 | 54 | 1011.3 |
| 20260504023020 | 66 | 139 | 0.0 | 0.0 | 0.00 | 0.00 | 0.00 | 53 | 1011.1 |
| 20260504021606 | 67 | 226 | 0.0 | 1.0 | 0.00 | 0.00 | 0.00 | 51 | 1011.1 |
| 20260504020041 | 68 | 212 | 0.0 | 0.0 | 0.00 | 0.00 | 0.00 | 49 | 1011.2 |
| 20260504014526 | 69 | 186 | 0.0 | 0.0 | 0.00 | 0.00 | 0.00 | 46 | 1011.1 |
| 20260504013009 | 70 | 226 | 0.0 | 0.0 | 0.00 | 0.00 | 0.00 | 45 | 1011.0 |
| 20260504011548 | 71 | 233 | 0.0 | 3.0 | 0.00 | 0.00 | 0.00 | 44 | 1011.0 |
| 20260504010032 | 71 | 205 | 0.0 | 0.0 | 0.00 | 0.00 | 0.00 | 43 | 1011.0 |
| 20260504004514 | 73 | 225 | 0.0 | 5.0 | 0.00 | 0.00 | 0.00 | 41 | 1011.0 |
| 20260504003049 | 73 | 234 | 0.0 | 7.0 | 0.00 | 0.00 | 0.00 | 40 | 1011.1 |
| 20260504001535 | 74 | 205 | 0.0 | 8.0 | 0.00 | 0.00 | 0.00 | 39 | 1011.2 |
| 20260504000019 | 75 | 226 | 5.0 | 9.0 | 0.00 | 0.00 | 0.00 | 38 | 1011.2 |
| 20260503234600 | 75 | 212 | 5.0 | 10.0 | 0.00 | 0.00 | 0.00 | 38 | 1011.2 |
| 20260503233043 | 76 | 240 | 3.0 | 14.0 | 0.00 | 0.00 | 0.00 | 37 | 1011.2 |
| 20260503231522 | 76 | 183 | 2.0 | 12.0 | 0.00 | 0.00 | 0.00 | 38 | 1011.3 |
| 20260503230010 | 76 | 232 | 2.0 | 14.0 | 0.00 | 0.00 | 0.00 | 36 | 1011.4 |
| 20260503224546 | 77 | 193 | 4.0 | 11.0 | 0.00 | 0.00 | 0.00 | 35 | 1011.5 |
| 20260503223030 | 78 | 258 | 5.0 | 14.0 | 0.00 | 0.00 | 0.00 | 35 | 1011.6 |
| 20260503221510 | 78 | 241 | 3.0 | 15.0 | 0.00 | 0.00 | 0.00 | 34 | 1011.7 |
| 20260503220050 | 79 | 233 | 4.0 | 15.0 | 0.00 | 0.00 | 0.00 | 36 | 1011.8 |
| 20260503214532 | 78 | 233 | 8.0 | 15.0 | 0.00 | 0.00 | 0.00 | 33 | 1012.1 |
| 20260503213014 | 79 | 243 | 3.0 | 14.0 | 0.00 | 0.00 | 0.00 | 34 | 1012.2 |
| 20260503211552 | 78 | 222 | 6.0 | 15.0 | 0.00 | 0.00 | 0.00 | 34 | 1012.4 |
| 20260503210025 | 78 | 250 | 7.0 | 17.0 | 0.00 | 0.00 | 0.00 | 34 | 1012.7 |
| 20260503204506 | 78 | 211 | 6.0 | 16.0 | 0.00 | 0.00 | 0.00 | 36 | 1012.9 |
| 20260503203045 | 79 | 242 | 0.0 | 14.0 | 0.00 | 0.00 | 0.00 | 36 | 1013.2 |
| 20260503201528 | 77 | 243 | 6.0 | 17.0 | 0.00 | 0.00 | 0.00 | 36 | 1013.4 |
| 20260503200008 | 77 | 248 | 5.0 | 10.0 | 0.00 | 0.00 | 0.00 | 38 | 1013.7 |
| 20260503194547 | 77 | 231 | 4.0 | 14.0 | 0.00 | 0.00 | 0.00 | 40 | 1014.0 |
| 20260503193028 | 76 | 248 | 7.0 | 14.0 | 0.00 | 0.00 | 0.00 | 38 | 1014.2 |
| 20260503191504 | 75 | 300 | 3.0 | 15.0 | 0.00 | 0.00 | 0.00 | 43 | 1014.6 |
| 20260503190042 | 75 | 241 | 4.0 | 16.0 | 0.00 | 0.00 | 0.00 | 45 | 1014.8 |
| 20260503184521 | 74 | 187 | 4.0 | 15.0 | 0.00 | 0.00 | 0.00 | 43 | 1015.0 |
| 20260503183103 | 73 | 222 | 3.0 | 14.0 | 0.00 | 0.00 | 0.00 | 46 | 1015.3 |
| 20260503181540 | 72 | 220 | 5.0 | 14.0 | 0.00 | 0.00 | 0.00 | 47 | 1015.7 |
| 20260503180018 | 71 | 156 | 6.0 | 15.0 | 0.00 | 0.00 | 0.00 | 48 | 1015.9 |
| 20260503174602 | 71 | 160 | 6.0 | 14.0 | 0.00 | 0.00 | 0.00 | 46 | 1016.2 |
| 20260503174504 | 71 | 232 | 2.0 | 14.0 | 0.00 | 0.00 | 0.00 | 48 | 1016.3 |
| 20260503173038 | 71 | 153 | 4.0 | 14.0 | 0.00 | 0.00 | 0.00 | 47 | 1016.7 |
| 20260503171518 | 70 | 286 | 3.0 | 15.0 | 0.00 | 0.00 | 0.00 | 50 | 1016.9 |
| 20260503170107 | 70 | 171 | 4.0 | 15.0 | 0.00 | 0.00 | 0.00 | 47 | 1017.2 |